When you browse on this site, cookies collect data to enhance your experience and personalize the content and advertising you see.
Visit our Privacy Policy to learn more. By continuing to use the site, you agree to this use of cookies and data.
  • In France
  • List of Countries
  • For 7 days
  • Water Temperature
  • Weather Map
  • Weather Widgets
  • user-avatar
    Login

    Hourly Weather Bochenka

    Today, 15 October, Tuesday

    Time Temperature Precipitation Wind Pressure Humidity
    00:00 +15°C° 0 mm 1 mps 739 mmHg 73%
    01:00 +15°C° 0 mm 2 mps 739 mmHg 74%
    02:00 +14°C° 0 mm 2 mps 739 mmHg 75%
    03:00 +14°C° 0 mm 2 mps 738 mmHg 76%
    04:00 +13°C° 0 mm 2 mps 738 mmHg 77%
    05:00 +12°C° 0 mm 3 mps 738 mmHg 77%
    06:00 +12°C° 0 mm 3 mps 738 mmHg 78%
    07:00 +12°C° 0 mm 3 mps 738 mmHg 78%
    08:00 +14°C° 0 mm 4 mps 737 mmHg 72%
    09:00 +15°C° 0 mm 4 mps 737 mmHg 67%
    10:00 +18°C° 0 mm 4 mps 736 mmHg 61%
    11:00 +19°C° 0 mm 4 mps 736 mmHg 59%
    12:00 +20°C° 0 mm 4 mps 736 mmHg 57%
    13:00 +21°C° 0 mm 4 mps 736 mmHg 55%
    14:00 +21°C° 0 mm 3 mps 735 mmHg 57%
    15:00 +20°C° 0 mm 3 mps 735 mmHg 60%
    16:00 +20°C° 0 mm 2 mps 734 mmHg 63%
    17:00 +19°C° 0 mm 3 mps 734 mmHg 66%
    18:00 +18°C° 0 mm 3 mps 734 mmHg 68%
    19:00 +17°C° 0 mm 4 mps 734 mmHg 71%
    20:00 +15°C° 0 mm 4 mps 734 mmHg 72%
    21:00 +15°C° 0 mm 4 mps 734 mmHg 73%
    22:00 +14°C° 0 mm 4 mps 734 mmHg 74%
    23:00 +14°C° 0 mm 4 mps 734 mmHg 75%

    Tomorrow, 16 October, Wednesday

    Time Temperature Precipitation Wind Pressure Humidity
    00:00 +13°C° 0 mm 3 mps 734 mmHg 76%
    01:00 +13°C° 0 mm 3 mps 734 mmHg 77%
    02:00 +13°C° 0 mm 4 mps 734 mmHg 74%
    03:00 +14°C° 0 mm 4 mps 734 mmHg 71%
    04:00 +14°C° 0 mm 4 mps 734 mmHg 68%
    05:00 +14°C° 0 mm 5 mps 734 mmHg 72%
    06:00 +14°C° 0 mm 5 mps 734 mmHg 75%
    07:00 +14°C° 0 mm 6 mps 734 mmHg 79%
    08:00 +15°C° 0 mm 6 mps 735 mmHg 74%
    09:00 +16°C° 0 mm 6 mps 736 mmHg 69%
    10:00 +17°C° 0 mm 7 mps 737 mmHg 63%
    11:00 +17°C° 0 mm 7 mps 737 mmHg 62%
    12:00 +17°C° 0 mm 7 mps 737 mmHg 61%
    13:00 +17°C° 0 mm 7 mps 737 mmHg 59%
    14:00 +16°C° 0 mm 6 mps 737 mmHg 59%
    15:00 +16°C° 0 mm 5 mps 737 mmHg 60%
    16:00 +15°C° 0 mm 4 mps 737 mmHg 60%
    17:00 +14°C° 0 mm 4 mps 738 mmHg 62%
    18:00 +13°C° 0 mm 3 mps 738 mmHg 64%
    19:00 +12°C° 0 mm 3 mps 738 mmHg 65%
    20:00 +12°C° 0 mm 3 mps 738 mmHg 67%
    21:00 +11°C° 0 mm 4 mps 739 mmHg 70%
    22:00 +11°C° 0 mm 4 mps 739 mmHg 72%
    23:00 +11°C° 0 mm 4 mps 739 mmHg 72%

    Day after tomorrow, 17 October, Thursday

    Time Temperature Precipitation Wind Pressure Humidity
    00:00 +10°C° 0 mm 4 mps 739 mmHg 72%
    01:00 +10°C° 0 mm 4 mps 739 mmHg 72%
    02:00 +10°C° 0 mm 4 mps 739 mmHg 72%
    03:00 +8°C° 0 mm 4 mps 739 mmHg 73%
    04:00 +8°C° 0 mm 4 mps 739 mmHg 73%
    05:00 +8°C° 0 mm 4 mps 739 mmHg 73%
    06:00 +8°C° 0 mm 4 mps 739 mmHg 73%
    07:00 +8°C° 0 mm 4 mps 739 mmHg 73%
    08:00 +11°C° 0 mm 4 mps 740 mmHg 68%
    09:00 +13°C° 0 mm 4 mps 740 mmHg 63%
    10:00 +14°C° 0 mm 4 mps 740 mmHg 58%
    11:00 +15°C° 0 mm 4 mps 740 mmHg 57%
    12:00 +17°C° 0 mm 4 mps 740 mmHg 56%
    13:00 +18°C° 0 mm 3 mps 740 mmHg 55%
    14:00 +17°C° 0 mm 3 mps 740 mmHg 58%
    15:00 +17°C° 0 mm 2 mps 740 mmHg 61%
    16:00 +16°C° 0 mm 2 mps 740 mmHg 64%
    17:00 +15°C° 0 mm 1 mps 740 mmHg 66%
    18:00 +14°C° 0 mm 1 mps 740 mmHg 67%
    19:00 +14°C° 0 mm 1 mps 740 mmHg 69%
    20:00 +13°C° 0 mm 1 mps 741 mmHg 69%
    21:00 +13°C° 0 mm 1 mps 741 mmHg 70%
    22:00 +13°C° 0 mm 1 mps 741 mmHg 70%
    23:00 +13°C° 0 mm 1 mps 741 mmHg 69%

    18 October, Friday

    Time Temperature Precipitation Wind Pressure Humidity
    00:00 +13°C° 0 mm 1 mps 741 mmHg 69%
    01:00 +13°C° 0 mm 1 mps 741 mmHg 68%
    02:00 +13°C° 0 mm 1 mps 741 mmHg 70%
    03:00 +13°C° 0 mm 1 mps 741 mmHg 72%
    04:00 +13°C° 0 mm 1 mps 741 mmHg 74%
    05:00 +13°C° 0 mm 1 mps 741 mmHg 75%
    06:00 +13°C° 0 mm 1 mps 741 mmHg 77%
    07:00 +13°C° 0 mm 1 mps 741 mmHg 78%
    08:00 +14°C° 0 mm 1 mps 741 mmHg 72%
    09:00 +15°C° 0 mm 1 mps 741 mmHg 66%
    10:00 +18°C° 0 mm 1 mps 742 mmHg 60%
    11:00 +18°C° 0 mm 1 mps 741 mmHg 58%
    12:00 +19°C° 0 mm 1 mps 741 mmHg 55%
    13:00 +20°C° 0 mm 1 mps 741 mmHg 53%
    14:00 +19°C° 0 mm 1 mps 741 mmHg 56%
    15:00 +18°C° 0 mm 1 mps 741 mmHg 60%
    16:00 +16°C° 0 mm 1 mps 740 mmHg 63%
    17:00 +16°C° 0 mm 1 mps 741 mmHg 66%
    18:00 +15°C° 0 mm 1 mps 741 mmHg 69%
    19:00 +14°C° 0 mm 1 mps 741 mmHg 71%
    20:00 +14°C° 0 mm 1 mps 741 mmHg 73%
    21:00 +13°C° 0 mm 1 mps 741 mmHg 75%
    22:00 +13°C° 0 mm 1 mps 741 mmHg 77%
    23:00 +12°C° 0 mm 1 mps 741 mmHg 78%

    19 October, Saturday

    Time Temperature Precipitation Wind Pressure Humidity
    00:00 +12°C° 0 mm 1 mps 741 mmHg 79%
    01:00 +12°C° 0 mm 1 mps 740 mmHg 81%
    02:00 +12°C° 0 mm 1 mps 740 mmHg 83%
    03:00 +12°C° 0 mm 1 mps 740 mmHg 84%
    04:00 +12°C° 0 mm 1 mps 740 mmHg 86%
    05:00 +12°C° 0 mm 1 mps 740 mmHg 86%
    06:00 +12°C° 0 mm 1 mps 740 mmHg 85%
    07:00 +12°C° 0 mm 1 mps 740 mmHg 85%
    08:00 +14°C° 0 mm 2 mps 740 mmHg 80%
    09:00 +15°C° 0 mm 2 mps 740 mmHg 74%
    10:00 +17°C° 0 mm 2 mps 740 mmHg 69%
    11:00 +17°C° 0 mm 2 mps 740 mmHg 68%
    12:00 +19°C° 0 mm 1 mps 740 mmHg 66%
    13:00 +19°C° 0 mm 1 mps 740 mmHg 65%
    14:00 +19°C° 0 mm 1 mps 740 mmHg 67%
    15:00 +18°C° 0 mm 1 mps 739 mmHg 69%
    16:00 +18°C° 0 mm 1 mps 739 mmHg 70%
    17:00 +16°C° 0 mm 2 mps 739 mmHg 73%
    18:00 +16°C° 0 mm 2 mps 739 mmHg 75%
    19:00 +15°C° 0 mm 2 mps 739 mmHg 77%
    20:00 +15°C° 0 mm 2 mps 739 mmHg 78%
    21:00 +14°C° 0 mm 2 mps 739 mmHg 79%
    22:00 +14°C° 0 mm 2 mps 739 mmHg 80%
    23:00 +14°C° 0 mm 2 mps 738 mmHg 80%

    20 October, Sunday

    Time Temperature Precipitation Wind Pressure Humidity
    00:00 +14°C° 0 mm 2 mps 738 mmHg 80%
    01:00 +13°C° 0 mm 3 mps 738 mmHg 80%
    02:00 +13°C° 0 mm 3 mps 737 mmHg 80%
    03:00 +12°C° 0 mm 3 mps 737 mmHg 80%
    04:00 +12°C° 0 mm 3 mps 737 mmHg 79%
    05:00 +12°C° 0 mm 3 mps 737 mmHg 77%
    06:00 +13°C° 0 mm 4 mps 737 mmHg 75%
    07:00 +13°C° 0 mm 4 mps 736 mmHg 72%
    08:00 +15°C° 0 mm 5 mps 736 mmHg 66%
    09:00 +17°C° 0 mm 5 mps 736 mmHg 59%
    10:00 +20°C° 0 mm 5 mps 736 mmHg 53%
    11:00 +21°C° 0 mm 6 mps 736 mmHg 49%
    12:00 +22°C° 0 mm 6 mps 736 mmHg 46%
    13:00 +23°C° 0 mm 6 mps 736 mmHg 43%
    14:00 +21°C° 0 mm 5 mps 736 mmHg 47%
    15:00 +20°C° 0 mm 4 mps 736 mmHg 52%
    16:00 +19°C° 0 mm 3 mps 736 mmHg 57%
    17:00 +18°C° 0 mm 3 mps 736 mmHg 59%
    18:00 +17°C° 0 mm 2 mps 736 mmHg 62%
    19:00 +16°C° 0 mm 2 mps 737 mmHg 65%
    20:00 +16°C° 0 mm 2 mps 737 mmHg 67%
    21:00 +16°C° 0 mm 2 mps 737 mmHg 68%
    22:00 +15°C° 0 mm 2 mps 737 mmHg 69%
    23:00 +15°C° 0 mm 2 mps 737 mmHg 69%
    Show more